Torna al catalogo

STARLINK-31519

AttivoComunicazioniVLEO
NORAD 59546·PAYLOAD·🇺🇸 United States

Lanciato Apr 18, 2024 da Cape Canaveral Space Force Station

Loading…

Prossimi Passaggi (prossime 24 ore)

TLE

AggiornatoSource: CelesTrak SupGP

Epoca: Sep 14, 2026, 21:14 UTC

1 59546C 24074N   26257.88520833  .00000844  00000+0  30582-4 0  2579
2 59546  43.0015 354.6908 0001496 276.4161  78.6230 15.27568014    12

Traccia STARLINK-31519 in tempo reale con AllMySat

Download on the App Store